DAL554 KLAS-KLAX

Flight info

Callsign DAL554
Flight time 0h 46m
Altitude 27000
Route RADYR2 BLAQQ SHTNR ANJLL4
Aircraft A359/H-SDE2E3GHIJ3J4J5LM1ORWXY/LB1D1

Departure

Time 2026-05-04 03:39
Airport Harry Reid International Airport (KLAS)

Arrival

Time 2026-05-04 04:25
Airport Los Angeles International Airport (KLAX)
Time Latitude Longitude Altitude Speed Heading
2026-05-04 03:20 36.08109 -115.13220 2115 ft 0 kts 270°
2026-05-04 03:24 36.08111 -115.13201 2116 ft 2 kts 250°
2026-05-04 03:25 36.08115 -115.13189 2115 ft 2 kts 237°
2026-05-04 03:25 36.08126 -115.13173 2115 ft 2 kts 216°
2026-05-04 03:25 36.08140 -115.13163 2112 ft 2 kts 202°
2026-05-04 03:25 36.08156 -115.13157 2111 ft 2 kts 193°
2026-05-04 03:26 36.08172 -115.13153 2109 ft 2 kts 186°
2026-05-04 03:26 36.08186 -115.13152 2109 ft 0 kts 182°
2026-05-04 03:27 36.08130 -115.13152 2113 ft 17 kts 180°
2026-05-04 03:27 36.08035 -115.13153 2122 ft 11 kts 180°
2026-05-04 03:28 36.07967 -115.13153 2127 ft 8 kts 179°
2026-05-04 03:28 36.07954 -115.13153 2127 ft 0 kts 179°
2026-05-04 03:28 36.07952 -115.13153 2127 ft 5 kts 179°
2026-05-04 03:29 36.07840 -115.13119 2126 ft 15 kts 125°
2026-05-04 03:29 36.07830 -115.12987 2126 ft 16 kts 88°
2026-05-04 03:29 36.07830 -115.12836 2124 ft 19 kts 91°
2026-05-04 03:29 36.07828 -115.12653 2125 ft 23 kts 89°
2026-05-04 03:30 36.07828 -115.12507 2127 ft 0 kts 90°
2026-05-04 03:30 36.07827 -115.12433 2128 ft 23 kts 90°
2026-05-04 03:30 36.07821 -115.12281 2127 ft 13 kts 102°
2026-05-04 03:30 36.07818 -115.12268 2127 ft 0 kts 110°
2026-05-04 03:31 36.07817 -115.12268 2127 ft 0 kts 110°
2026-05-04 03:33 36.07809 -115.12255 2130 ft 10 kts 133°
2026-05-04 03:33 36.07765 -115.12183 2127 ft 10 kts 126°
2026-05-04 03:34 36.07718 -115.12129 2129 ft 8 kts 157°
2026-05-04 03:34 36.07660 -115.12131 2131 ft 9 kts 207°
2026-05-04 03:34 36.07642 -115.12183 2131 ft 0 kts 270°
2026-05-04 03:38 36.07642 -115.12202 2131 ft 13 kts 270°
2026-05-04 03:38 36.07641 -115.12633 2130 ft 84 kts 271°
2026-05-04 03:38 36.07641 -115.13622 2133 ft 143 kts 269°
2026-05-04 03:39 36.07647 -115.15066 2210 ft 187 kts 265°
2026-05-04 03:39 36.07659 -115.16766 2596 ft 205 kts 266°
2026-05-04 03:39 36.07675 -115.18569 3002 ft 202 kts 269°
2026-05-04 03:39 36.07761 -115.20227 3180 ft 195 kts 271°
2026-05-04 03:40 36.07691 -115.21914 3626 ft 207 kts 259°
2026-05-04 03:40 36.07361 -115.23722 4143 ft 221 kts 253°
2026-05-04 03:40 36.06709 -115.25451 4869 ft 225 kts 233°
2026-05-04 03:40 36.05460 -115.26635 5636 ft 231 kts 206°
2026-05-04 03:41 36.03951 -115.27356 6479 ft 234 kts 201°
2026-05-04 03:41 36.02394 -115.28025 7236 ft 238 kts 200°
2026-05-04 03:41 36.00824 -115.28710 7807 ft 240 kts 200°
2026-05-04 03:41 35.99232 -115.29362 8241 ft 242 kts 195°
2026-05-04 03:42 35.97595 -115.29816 9066 ft 245 kts 192°
2026-05-04 03:42 35.95919 -115.30227 10052 ft 246 kts 191°
2026-05-04 03:42 35.94225 -115.30636 10924 ft 250 kts 191°
2026-05-04 03:42 35.92504 -115.31055 11765 ft 254 kts 191°
2026-05-04 03:43 35.90751 -115.31483 12635 ft 258 kts 190°
2026-05-04 03:43 35.88981 -115.31916 13551 ft 261 kts 190°
2026-05-04 03:43 35.87186 -115.32355 14352 ft 264 kts 191°
2026-05-04 03:43 35.85372 -115.32798 15139 ft 267 kts 192°
2026-05-04 03:44 35.83548 -115.33245 15995 ft 268 kts 193°
2026-05-04 03:44 35.81712 -115.33696 16772 ft 271 kts 193°
2026-05-04 03:44 35.79847 -115.34154 17508 ft 275 kts 194°
2026-05-04 03:44 35.77965 -115.34616 17950 ft 276 kts 194°
2026-05-04 03:45 35.76096 -115.35074 18101 ft 278 kts 194°
2026-05-04 03:45 35.74197 -115.35540 18291 ft 280 kts 195°
2026-05-04 03:45 35.72277 -115.36009 18827 ft 282 kts 195°
2026-05-04 03:45 35.70362 -115.36476 19591 ft 280 kts 197°
2026-05-04 03:46 35.68450 -115.36942 20345 ft 279 kts 198°
2026-05-04 03:46 35.66540 -115.37409 21067 ft 279 kts 198°
2026-05-04 03:46 35.64635 -115.37874 21767 ft 279 kts 199°
2026-05-04 03:46 35.62717 -115.38342 22461 ft 281 kts 200°
2026-05-04 03:47 35.60765 -115.38670 23145 ft 288 kts 194°
2026-05-04 03:47 35.58730 -115.38661 23747 ft 296 kts 188°
2026-05-04 03:47 35.56653 -115.38519 24218 ft 301 kts 188°
2026-05-04 03:47 35.54574 -115.38361 24684 ft 306 kts 188°
2026-05-04 03:48 35.52436 -115.38199 25160 ft 310 kts 188°
2026-05-04 03:48 35.50273 -115.38037 25636 ft 313 kts 188°
2026-05-04 03:48 35.48086 -115.37907 26115 ft 314 kts 190°
2026-05-04 03:48 35.45908 -115.38011 26576 ft 311 kts 197°
2026-05-04 03:49 35.43789 -115.38446 26805 ft 304 kts 203°
2026-05-04 03:49 35.41789 -115.39204 26839 ft 298 kts 210°
2026-05-04 03:49 35.39910 -115.40247 26856 ft 295 kts 215°
2026-05-04 03:49 35.38093 -115.41408 26847 ft 295 kts 216°
2026-05-04 03:50 35.36272 -115.42589 26855 ft 296 kts 216°
2026-05-04 03:50 35.34469 -115.43753 26853 ft 297 kts 215°
2026-05-04 03:50 35.32637 -115.44929 26853 ft 297 kts 215°
2026-05-04 03:50 35.30784 -115.46120 26861 ft 309 kts 215°
2026-05-04 03:51 35.28823 -115.47385 26856 ft 328 kts 215°
2026-05-04 03:51 35.26745 -115.48720 26855 ft 347 kts 214°
2026-05-04 03:51 35.24548 -115.50125 26854 ft 365 kts 214°
2026-05-04 03:51 35.22235 -115.51599 26853 ft 383 kts 214°
2026-05-04 03:52 35.19837 -115.53122 26865 ft 391 kts 213°
2026-05-04 03:52 35.17413 -115.54656 26849 ft 393 kts 213°
2026-05-04 03:52 35.14992 -115.56200 26847 ft 393 kts 214°
2026-05-04 03:52 35.12692 -115.57960 26820 ft 388 kts 221°
2026-05-04 03:53 35.10662 -115.60094 26848 ft 382 kts 229°
2026-05-04 03:53 35.08810 -115.62413 26852 ft 381 kts 230°
2026-05-04 03:53 35.07005 -115.64735 26868 ft 381 kts 230°
2026-05-04 03:53 35.05183 -115.67081 26845 ft 380 kts 230°
2026-05-04 03:54 35.03361 -115.69416 26842 ft 379 kts 230°
2026-05-04 03:54 35.01569 -115.71705 26840 ft 366 kts 230°
2026-05-04 03:54 34.99828 -115.73925 26842 ft 358 kts 230°
2026-05-04 03:54 34.98109 -115.76118 26843 ft 356 kts 230°
2026-05-04 03:55 34.96400 -115.78299 26833 ft 356 kts 230°
2026-05-04 03:55 34.94686 -115.80485 26834 ft 356 kts 230°
2026-05-04 03:55 34.92971 -115.82669 26819 ft 356 kts 230°
2026-05-04 03:55 34.91260 -115.84846 26818 ft 356 kts 230°
2026-05-04 03:56 34.89548 -115.87023 26818 ft 356 kts 230°
2026-05-04 03:56 34.87833 -115.89201 26812 ft 356 kts 230°
2026-05-04 03:56 34.86138 -115.91353 26812 ft 356 kts 230°
2026-05-04 03:56 34.84422 -115.93529 26813 ft 356 kts 230°
2026-05-04 03:57 34.82701 -115.95710 26823 ft 356 kts 230°
2026-05-04 03:57 34.80989 -115.97878 26811 ft 354 kts 230°
2026-05-04 03:57 34.79286 -116.00032 26793 ft 353 kts 230°
2026-05-04 03:57 34.77586 -116.02186 26793 ft 352 kts 230°
2026-05-04 03:58 34.74210 -116.06481 26793 ft 351 kts 231°
2026-05-04 03:58 34.72528 -116.08629 26791 ft 351 kts 231°
2026-05-04 03:58 34.70837 -116.10784 26791 ft 351 kts 230°
2026-05-04 03:59 34.69173 -116.12903 26796 ft 351 kts 231°
2026-05-04 03:59 34.67484 -116.15052 26797 ft 351 kts 230°
2026-05-04 03:59 34.65800 -116.17193 26793 ft 351 kts 230°
2026-05-04 03:59 34.64110 -116.19340 26793 ft 351 kts 230°
2026-05-04 04:00 34.62419 -116.21482 26796 ft 351 kts 230°
2026-05-04 04:00 34.60731 -116.23623 26794 ft 351 kts 230°
2026-05-04 04:00 34.59046 -116.25761 26796 ft 351 kts 230°
2026-05-04 04:00 34.57360 -116.27899 26792 ft 350 kts 230°
2026-05-04 04:01 34.55675 -116.30033 26791 ft 349 kts 230°
2026-05-04 04:01 34.53994 -116.32164 26794 ft 350 kts 230°
2026-05-04 04:01 34.52313 -116.34290 26789 ft 349 kts 230°
2026-05-04 04:01 34.50631 -116.36415 26792 ft 350 kts 230°
2026-05-04 04:02 34.48964 -116.38520 26784 ft 349 kts 230°
2026-05-04 04:02 34.47282 -116.40643 26764 ft 349 kts 230°
2026-05-04 04:02 34.45601 -116.42762 26785 ft 348 kts 230°
2026-05-04 04:02 34.43921 -116.44881 26787 ft 348 kts 230°
2026-05-04 04:03 34.42313 -116.47048 26789 ft 345 kts 235°
2026-05-04 04:03 34.40981 -116.49454 26688 ft 342 kts 243°
2026-05-04 04:03 34.39879 -116.52010 26447 ft 341 kts 245°
2026-05-04 04:03 34.38830 -116.54580 26203 ft 341 kts 245°
2026-05-04 04:04 34.37780 -116.57157 25938 ft 341 kts 244°
2026-05-04 04:04 34.36724 -116.59735 25669 ft 342 kts 244°
2026-05-04 04:04 34.35673 -116.62292 25364 ft 344 kts 244°
2026-05-04 04:04 34.34607 -116.64880 25077 ft 344 kts 244°
2026-05-04 04:05 34.33540 -116.67467 24783 ft 343 kts 244°
2026-05-04 04:05 34.32482 -116.70067 24478 ft 343 kts 244°
2026-05-04 04:05 34.31442 -116.72664 24183 ft 343 kts 244°
2026-05-04 04:05 34.30401 -116.75261 23921 ft 343 kts 244°
2026-05-04 04:06 34.29360 -116.77858 23635 ft 343 kts 244°
2026-05-04 04:06 34.28318 -116.80448 23335 ft 343 kts 244°
2026-05-04 04:06 34.27273 -116.83042 22988 ft 342 kts 244°
2026-05-04 04:06 34.26245 -116.85590 22652 ft 341 kts 244°
2026-05-04 04:07 34.25206 -116.88164 22351 ft 339 kts 244°
2026-05-04 04:07 34.24171 -116.90728 22009 ft 337 kts 244°
2026-05-04 04:07 34.23141 -116.93275 21681 ft 336 kts 244°
2026-05-04 04:07 34.22196 -116.95637 21372 ft 334 kts 246°
2026-05-04 04:08 34.21264 -116.98161 21048 ft 332 kts 250°
2026-05-04 04:08 34.20510 -117.00787 20769 ft 330 kts 253°
2026-05-04 04:08 34.19812 -117.03423 20444 ft 330 kts 253°
2026-05-04 04:08 34.19113 -117.06061 20144 ft 329 kts 253°
2026-05-04 04:09 34.18412 -117.08682 19946 ft 327 kts 253°
2026-05-04 04:09 34.17711 -117.11300 19930 ft 326 kts 253°
2026-05-04 04:09 34.17011 -117.13902 19898 ft 325 kts 252°
2026-05-04 04:09 34.16309 -117.16497 19619 ft 324 kts 252°
2026-05-04 04:10 34.15603 -117.19079 19343 ft 323 kts 252°
2026-05-04 04:10 34.14895 -117.21644 18927 ft 320 kts 252°
2026-05-04 04:10 34.14192 -117.24190 18520 ft 318 kts 252°
2026-05-04 04:10 34.13496 -117.26711 18076 ft 316 kts 252°
2026-05-04 04:11 34.12804 -117.29222 17612 ft 315 kts 252°
2026-05-04 04:11 34.12121 -117.31696 17160 ft 315 kts 252°
2026-05-04 04:11 34.11428 -117.34207 16713 ft 315 kts 252°
2026-05-04 04:11 34.10735 -117.36718 16260 ft 316 kts 251°
2026-05-04 04:12 34.10065 -117.39229 15812 ft 312 kts 253°
2026-05-04 04:12 34.09456 -117.41682 15369 ft 300 kts 253°
2026-05-04 04:12 34.09063 -117.43275 15081 ft 298 kts 253°
2026-05-04 04:12 34.08472 -117.45664 14659 ft 295 kts 252°
2026-05-04 04:13 34.07882 -117.48033 14255 ft 294 kts 252°
2026-05-04 04:13 34.07291 -117.50396 13838 ft 295 kts 252°
2026-05-04 04:13 34.06693 -117.52764 13361 ft 295 kts 252°
2026-05-04 04:13 34.06085 -117.55138 12901 ft 294 kts 252°
2026-05-04 04:14 34.05480 -117.57494 12431 ft 293 kts 252°
2026-05-04 04:14 34.04881 -117.59830 11986 ft 291 kts 252°
2026-05-04 04:14 34.04285 -117.62118 11549 ft 289 kts 250°
2026-05-04 04:14 34.03659 -117.64415 11116 ft 287 kts 250°
2026-05-04 04:15 34.03044 -117.66703 10673 ft 286 kts 250°
2026-05-04 04:15 34.02451 -117.68984 10246 ft 284 kts 252°
2026-05-04 04:15 34.02060 -117.71319 9820 ft 284 kts 260°
2026-05-04 04:15 34.01816 -117.73675 9311 ft 283 kts 261°
2026-05-04 04:16 34.01592 -117.76031 8858 ft 282 kts 261°
2026-05-04 04:16 34.01369 -117.78381 8405 ft 282 kts 262°
2026-05-04 04:16 34.01144 -117.80733 7958 ft 282 kts 262°
2026-05-04 04:16 34.00916 -117.83084 7512 ft 282 kts 262°
2026-05-04 04:17 34.00690 -117.85437 7134 ft 282 kts 262°
2026-05-04 04:17 34.00461 -117.87793 6824 ft 282 kts 262°
2026-05-04 04:17 34.00231 -117.90123 6524 ft 282 kts 262°
2026-05-04 04:17 34.00002 -117.92468 6216 ft 282 kts 263°
2026-05-04 04:18 33.99773 -117.94811 5907 ft 281 kts 262°
2026-05-04 04:18 33.99542 -117.97147 5600 ft 279 kts 262°
2026-05-04 04:18 33.99312 -117.99464 5290 ft 278 kts 263°
2026-05-04 04:18 33.99087 -118.01765 4987 ft 275 kts 263°
2026-05-04 04:19 33.98861 -118.04014 4663 ft 261 kts 263°
2026-05-04 04:19 33.98651 -118.06115 4350 ft 244 kts 263°
2026-05-04 04:19 33.98456 -118.08088 4055 ft 229 kts 262°
2026-05-04 04:19 33.98274 -118.09914 3925 ft 211 kts 262°
2026-05-04 04:20 33.98101 -118.11634 3546 ft 205 kts 262°
2026-05-04 04:20 33.97935 -118.13324 3150 ft 201 kts 262°
2026-05-04 04:20 33.97768 -118.14962 2717 ft 199 kts 263°
2026-05-04 04:20 33.97600 -118.16618 2428 ft 197 kts 263°
2026-05-04 04:21 33.97437 -118.18245 2243 ft 194 kts 263°
2026-05-04 04:21 33.97276 -118.19868 2210 ft 195 kts 263°
2026-05-04 04:21 33.97109 -118.21496 2213 ft 195 kts 263°
2026-05-04 04:21 33.96953 -118.23047 2228 ft 177 kts 262°
2026-05-04 04:22 33.96813 -118.24454 2223 ft 164 kts 263°
2026-05-04 04:22 33.96677 -118.25814 2216 ft 163 kts 262°
2026-05-04 04:22 33.96541 -118.27159 2215 ft 164 kts 263°
2026-05-04 04:22 33.96401 -118.28526 2100 ft 162 kts 263°
2026-05-04 04:23 33.96266 -118.29842 1882 ft 155 kts 263°
2026-05-04 04:23 33.96137 -118.31108 1671 ft 150 kts 263°
2026-05-04 04:23 33.96011 -118.32347 1466 ft 150 kts 263°
2026-05-04 04:23 33.95882 -118.33604 1259 ft 152 kts 262°
2026-05-04 04:24 33.95753 -118.34863 1050 ft 151 kts 264°
2026-05-04 04:24 33.95634 -118.36105 800 ft 148 kts 265°
2026-05-04 04:24 33.95543 -118.37305 664 ft 141 kts 261°
2026-05-04 04:24 33.95409 -118.38441 468 ft 133 kts 262°
2026-05-04 04:25 33.95292 -118.39542 282 ft 129 kts 261°
2026-05-04 04:25 33.95175 -118.40583 147 ft 122 kts 262°
2026-05-04 04:25 33.95084 -118.41460 130 ft 63 kts 262°
2026-05-04 04:25 33.95043 -118.41714 124 ft 24 kts 253°
2026-05-04 04:26 33.94966 -118.41886 122 ft 21 kts 234°
2026-05-04 04:26 33.94873 -118.42036 123 ft 23 kts 233°
2026-05-04 04:26 33.94773 -118.42196 121 ft 22 kts 231°
2026-05-04 04:26 33.94715 -118.42223 126 ft 8 kts 160°
2026-05-04 04:27 33.94695 -118.42123 129 ft 22 kts 82°
2026-05-04 04:27 33.94720 -118.41882 126 ft 25 kts 83°
2026-05-04 04:27 33.94734 -118.41737 124 ft 18 kts 83°
2026-05-04 04:27 33.94755 -118.41527 132 ft 30 kts 83°
2026-05-04 04:28 33.94794 -118.41282 132 ft 30 kts 82°
2026-05-04 04:28 33.94819 -118.41055 124 ft 23 kts 82°
2026-05-04 04:28 33.94810 -118.40903 124 ft 10 kts 137°
2026-05-04 04:28 33.94712 -118.40915 129 ft 24 kts 183°
2026-05-04 04:29 33.94578 -118.40903 128 ft 11 kts 199°
2026-05-04 04:29 33.94549 -118.40949 129 ft 5 kts 262°
2026-05-04 04:29 33.94546 -118.40979 124 ft 0 kts 263°
2026-05-04 04:29 33.94545 -118.40986 124 ft 0 kts 263°